Voltar ao catálogo

YAOGAN-35 05C

AtivoMilitarVLEO
NORAD 53763·PAYLOAD·🇨🇳 China

Lançado Sep 6, 2022 de Xichang Satellite Launch Center

Loading…

Próximas Passagens (próximas 24 horas)

TLE

AtualizadoSource: Space-Track

Época: Sep 14, 2026, 04:35 UTC

1 53763U 22109D   26257.19109941  .00006991  00000-0  27796-3 0  9993
2 53763  34.9913 156.2929 0003565 326.0328  34.0159 15.24586265223960

Acompanhe YAOGAN-35 05C em tempo real com AllMySat

Download on the App Store